RH
80 80 82 84 85 86 85 87 90 93 95 94 93 91 88 87 80 38 23 29 40 73 68 20 18 19 29 31 24 22 28 32 26 23 17 16 14 13 20 32 41 40 46 42 43
74 74 74 80 85 84 83 83 85 89 93 95 94 92 89 88 70 46 42 62 69 66 21 18 16 19 25 29 26 25 31 25 20 20 16 14 16 14 19 42 52 53 44 40 52
73 74 75 77 82 82 82 82 84 84 85 91 94 93 90 86 46 24 53 69 70 66 30 24 21 23 27 26 25 27 27 22 17 18 15 17 15 16 18 27 49 58 49 45 53
73 74 75 77 78 79 82 82 82 80 83 85 90 94 90 65 16 25 53 64 65 42 36 26 24 28 29 26 25 26 20 20 17 17 16 17 20 16 20 17 24 48 45 46 54
81 81 79 78 77 82 84 84 82 80 81 82 86 93 66 48 35 20 61 50 36 28 33 28 26 26 28 24 22 23 21 19 17 16 17 16 17 17 16 14 19 46 47 49 52
81 82 82 83 83 84 84 85 84 83 81 80 82 93 71 73 32 30 35 23 17 18 22 26 23 23 23 21 23 22 23 23 23 19 18 19 19 20 14 14 31 46 51 50 52
82 82 83 83 83 84 85 86 86 84 82 80 80 82 79 67 40 41 41 36 33 22 22 24 21 29 29 29 25 25 26 24 23 22 19 20 20 19 15 16 15 45 48 48 51
83 84 84 85 85 86 86 86 85 84 83 87 84 82 91 49 49 47 44 35 28 29 21 18 20 28 34 26 25 28 33 33 22 22 18 18 23 16 14 17 17 17 43 45 48
86 85 86 86 86 87 87 87 84 83 83 89 95 94 82 50 50 48 44 43 24 25 27 15 22 30 32 39 40 40 42 34 25 19 20 19 22 16 13 16 16 17 16 37 41
87 86 86 86 87 88 89 85 80 82 85 80 75 84 59 29 37 32 40 38 30 30 23 22 26 37 46 44 44 42 35 28 27 22 19 20 19 18 14 16 15 13 16 17 24
86 87 87 87 88 88 93 87 80 92 96 79 59 64 36 47 40 40 29 36 32 32 26 23 29 40 29 37 34 31 31 32 28 20 21 21 21 18 16 16 16 17 17 18 19
86 86 86 86 87 88 91 90 74 69 84 66 71 60 50 48 59 49 36 33 43 45 33 28 29 18 22 31 34 34 36 32 24 21 20 18 18 16 17 16 18 15 16 19 18
85 84 85 86 86 85 88 72 56 68 77 52 52 52 42 45 52 54 48 34 39 40 35 32 26 20 22 29 31 32 34 31 30 24 20 21 22 19 18 18 15 17 17 17 17
84 84 85 86 83 89 77 65 53 56 91 54 37 35 45 42 57 42 45 44 37 40 34 33 26 25 22 24 27 31 23 23 24 25 28 22 28 18 19 19 17 15 18 18 17
84 84 86 87 97 94 74 68 66 72 53 30 27 27 39 36 42 45 46 52 58 38 39 44 38 35 34 22 19 26 22 23 24 24 27 25 32 20 21 23 21 18 16 17 17
85 85 88 86 97 89 80 82 73 78 38 38 34 44 48 47 47 42 49 49 49 58 51 49 39 42 36 31 31 29 31 24 25 24 34 28 27 22 18 17 19 18 16 16 15
86 86 92 86 93 86 91 86 91 91 42 32 34 46 48 52 50 50 51 66 68 76 72 49 42 36 33 39 31 35 39 52 50 53 39 22 25 22 20 18 15 13 14 15 13
86 88 89 89 93 89 94 92 91 60 67 33 33 26 39 47 50 51 57 63 63 58 64 71 68 48 38 37 36 36 40 68 89 72 48 28 37 23 15 19 20 18 14 14 15
87 96 97 94 89 89 98 96 82 66 46 50 41 31 28 28 30 28 55 56 48 59 73 71 66 40 37 33 36 48 48 35 48 48 62 48 43 32 25 24 19 19 19 15 13
97 96 96 87 92 94 100 84 85 55 48 51 59 44 56 51 42 42 34 28 30 32 32 56 69 41 39 39 41 45 42 64 59 72 74 58 75 62 36 33 28 24 20 25 30
96 98 83 92 93 97 97 97 78 53 51 60 61 60 55 53 48 50 40 32 32 32 28 44 78 58 56 55 61 59 59 52 49 68 98 88 62 37 36 33 32 28 23 21 33
97 96 85 91 98 99 94 85 63 55 54 60 60 61 63 59 62 56 52 45 33 36 40 50 71 91 64 46 44 50 50 69 91 92 93 98 87 42 41 39 36 36 32 34 29
97 99 87 90 97 97 92 73 63 60 57 63 70 60 59 70 81 62 56 45 42 49 43 40 79 82 52 53 61 75 46 58 72 96 97 99 90 48 54 55 48 44 36 30 28
98 98 100 99 92 83 85 88 95 72 64 57 58 58 72 77 68 74 65 52 47 46 61 59 66 66 70 56 50 58 52 48 58 99 77 68 56 46 45 42 45 47 41 33 34
98 99 87 99 96 91 93 91 76 80 65 68 76 74 75 84 76 75 64 58 51 51 56 58 74 64 58 58 58 58 61 57 59 58 70 57 48 37 35 33 38 37 40 37 32
100 99 89 87 71 92 90 82 84 74 78 83 78 73 76 87 80 87 71 67 66 56 60 69 82 77 73 57 55 61 54 54 52 54 62 58 58 44 38 29 33 35 36 36 37
97 97 96 79 92 97 90 79 69 69 67 54 63 76 77 68 63 59 61 62 64 70 73 77 85 89 86 61 65 79 55 48 50 49 52 56 42 29 40 38 37 33 35 33 29
Wind_Speed
6 7 8 7 8 9 9 9 8 10 9 12 12 14 15 18 17 5 5 7 3 5 2 6 3 5 2 3 3 3 3 2 4 3 9 8 6 6 3 9 3 1 9 16 19
7 7 6 8 7 7 7 8 10 9 10 10 12 13 15 16 3 8 9 8 7 4 4 2 5 7 4 4 2 4 4 7 7 2 6 7 5 6 5 4 6 5 8 22 21
6 6 5 7 7 7 7 8 8 9 11 11 11 13 16 11 4 6 7 8 5 3 3 1 1 1 3 1 3 4 7 7 14 6 6 3 8 5 3 1 6 10 19 20 20
5 4 4 7 6 7 7 8 9 10 12 12 12 12 19 3 3 3 7 6 5 4 1 3 2 2 2 4 2 4 7 5 8 4 3 4 2 7 2 4 4 16 22 16 16
2 3 4 5 5 7 7 8 10 11 12 12 12 10 7 3 11 6 4 7 3 2 3 3 2 2 3 3 7 6 6 6 8 9 6 3 5 5 8 8 5 12 18 19 17
1 3 4 5 5 6 7 8 9 11 12 13 12 11 1 7 5 2 7 7 0 2 5 3 3 3 5 5 5 6 7 9 5 10 5 2 4 3 7 6 8 17 18 18 20
2 3 4 5 6 8 10 10 12 12 13 14 10 4 4 17 5 10 12 5 1 2 4 1 5 4 6 4 2 4 8 6 4 5 5 3 7 7 10 7 6 13 16 19 21
2 3 5 7 8 9 9 11 12 14 14 11 8 2 10 10 4 8 6 6 5 3 3 7 2 3 4 5 7 4 0 5 5 2 6 7 11 15 11 6 12 9 14 18 19
2 5 5 7 10 11 11 14 15 13 10 8 2 2 11 9 5 9 11 7 6 3 4 5 2 3 3 1 4 3 3 5 9 4 4 5 7 12 13 8 11 9 9 17 19
2 5 6 8 10 11 14 18 11 4 4 4 4 3 6 3 4 3 7 9 4 3 2 3 1 2 1 4 11 7 6 6 10 3 5 13 17 12 14 7 14 17 11 9 18
3 4 6 8 9 11 8 6 4 2 3 8 6 5 4 6 5 4 3 6 4 4 6 5 4 13 18 14 2 4 6 10 4 5 6 11 12 11 14 6 12 14 14 10 11
1 3 6 8 9 11 3 2 4 3 9 11 18 16 19 5 6 8 5 6 7 7 4 1 18 17 5 8 9 9 13 22 15 7 8 17 20 15 10 10 9 14 14 11 7
1 3 5 7 9 5 2 5 6 2 3 9 5 5 6 9 7 8 2 3 5 8 11 11 7 10 9 8 11 14 17 18 16 8 13 12 21 17 11 6 9 8 11 10 12
2 3 5 8 3 4 4 10 8 6 3 7 4 5 4 2 4 13 4 3 5 5 11 11 16 15 10 15 15 17 15 18 17 9 12 7 17 20 8 10 8 11 8 10 10
3 4 4 3 3 2 5 12 10 4 5 1 3 6 7 5 3 2 7 1 1 2 3 8 3 8 14 22 12 15 15 16 16 14 9 11 4 23 5 7 8 9 11 11 11
3 4 4 2 1 4 9 9 4 10 7 5 6 4 3 0 4 4 4 1 1 2 6 8 7 6 4 8 8 12 13 13 9 8 11 22 8 27 18 15 9 7 9 10 11
3 4 1 1 2 7 6 4 6 5 7 2 2 5 3 4 3 4 4 6 5 2 3 7 14 10 9 10 10 4 6 6 7 10 18 15 10 25 3 9 17 19 17 14 14
4 3 3 3 3 6 5 5 5 7 6 5 6 6 6 4 5 5 3 3 5 3 1 2 8 3 3 7 7 11 5 5 12 7 14 15 13 23 19 8 6 13 17 14 14
3 2 3 2 4 2 4 3 9 5 2 8 10 2 3 7 8 8 4 5 6 11 7 4 7 3 5 9 4 1 9 13 12 13 11 10 9 14 26 27 24 21 16 17 19
3 1 4 5 7 3 1 7 4 2 7 6 3 6 6 7 6 6 4 6 6 15 14 7 15 8 7 6 8 7 3 3 3 11 19 12 11 15 20 10 15 24 22 14 10
2 1 4 7 6 3 5 4 3 13 7 5 5 7 4 5 4 4 4 7 16 15 12 5 3 8 3 5 3 6 2 3 5 3 4 7 8 13 27 19 21 21 22 23 9
3 1 3 4 4 3 4 5 3 8 7 3 6 2 3 2 5 5 2 7 14 6 11 4 5 7 10 11 16 14 15 3 3 4 4 4 9 13 19 19 14 15 15 13 14
2 3 4 5 5 5 1 9 8 6 9 3 3 2 6 7 7 7 4 12 8 11 5 8 4 8 12 3 6 5 3 1 3 3 4 8 4 14 20 23 22 23 24 22 21
1 1 3 1 2 6 8 6 5 7 16 18 13 10 12 15 9 8 14 8 16 14 12 11 8 10 13 9 7 16 17 12 10 5 7 12 20 26 33 18 22 22 21 21 15
2 3 3 3 4 7 4 4 12 10 11 9 6 17 15 8 10 14 14 15 10 12 4 2 5 5 11 8 6 11 15 16 13 18 15 24 19 22 27 21 15 21 21 24 19
4 3 2 2 2 7 8 8 17 14 6 5 16 14 9 10 14 16 16 12 11 10 7 3 6 4 21 15 11 15 18 18 18 19 14 21 24 19 26 24 13 16 19 19 20
1 1 2 3 3 4 5 5 7 10 12 18 18 13 12 19 17 14 15 15 13 13 14 6 4 3 21 13 13 15 14 12 15 17 15 18 19 21 17 21 15 14 19 21 19
Wind_Direction
55 57 58 38 35 45 28 2 7 339 322 325 334 330 327 316 325 286 251 233 221 334 320 299 340 353 131 262 201 127 57 272 273 324 295 309 349 356 8 95 15 305 147 155 147
42 42 44 44 14 36 23 11 357 345 338 328 328 331 325 323 347 269 243 253 249 283 303 350 321 10 322 247 294 110 136 233 215 241 280 317 8 311 68 84 22 42 104 145 144
32 32 23 52 14 7 17 358 345 345 338 337 331 329 319 321 347 254 190 226 260 240 260 260 228 130 248 277 229 216 211 229 268 247 265 302 333 324 105 115 198 159 149 158 157
38 9 15 31 29 344 4 350 340 345 330 335 338 333 318 297 268 278 193 211 247 226 219 238 157 184 262 271 245 301 242 222 266 239 274 280 249 330 328 144 189 166 161 157 165
47 360 9 13 359 329 349 340 336 332 323 328 330 336 349 296 251 263 250 272 233 255 236 249 175 184 229 274 338 217 264 304 303 305 261 261 258 232 286 295 183 157 163 169 173
5 18 1 334 335 327 327 329 323 315 315 319 324 326 131 252 262 55 17 297 15 13 307 217 277 261 253 249 190 287 296 283 294 294 267 258 263 347 268 283 115 161 176 176 181
332 354 342 320 332 334 332 325 317 306 304 305 316 303 237 241 282 309 317 270 259 7 315 300 338 27 320 292 317 294 320 323 267 254 281 63 317 227 247 277 251 180 185 186 193
334 318 324 331 324 321 325 313 297 298 306 293 294 291 251 257 282 276 281 291 259 212 229 288 331 260 221 296 342 332 16 320 286 301 262 119 264 271 264 232 254 217 195 195 200
306 299 327 324 322 323 324 307 290 283 278 283 285 196 269 297 240 228 235 261 318 295 261 283 338 228 312 49 353 340 242 261 298 228 264 162 257 261 262 199 249 246 221 201 209
290 296 316 315 320 323 324 298 284 309 280 230 266 356 257 255 315 238 201 199 222 330 285 165 151 254 30 128 223 199 228 229 236 283 250 274 266 264 273 250 241 248 234 229 209
285 310 307 315 328 328 351 346 5 333 226 210 190 261 277 352 339 330 359 138 168 176 186 180 165 215 213 211 234 267 276 253 273 253 263 260 278 270 272 265 254 247 243 238 212
274 317 314 321 324 314 347 292 256 200 296 241 248 253 269 317 314 311 340 172 166 212 164 190 224 222 233 175 221 227 241 260 278 268 262 279 280 267 254 260 218 248 250 227 219
318 327 316 319 324 337 252 270 296 108 288 283 214 227 227 165 214 260 262 211 194 194 187 219 209 220 206 208 222 228 230 252 252 268 268 280 279 276 265 243 274 246 247 245 222
295 315 337 328 352 330 274 326 337 133 21 279 212 254 134 123 229 212 213 206 218 208 192 237 249 259 246 234 213 239 234 250 255 257 255 160 271 273 266 257 239 263 239 250 241
292 317 338 52 296 322 341 321 318 56 24 354 127 163 150 168 326 11 201 272 201 248 171 215 178 232 245 245 240 251 257 258 260 254 267 250 245 267 199 252 260 242 257 252 250
266 294 11 24 13 291 311 312 44 45 260 317 138 132 145 329 317 313 119 188 154 95 295 265 281 273 224 310 312 313 304 262 267 249 245 256 234 274 257 255 258 262 253 247 260
258 277 276 24 226 329 328 28 54 122 299 10 39 174 222 160 256 194 158 150 181 134 254 312 273 276 273 293 301 240 286 281 259 254 255 255 240 260 267 249 249 257 265 267 273
250 286 272 201 339 350 14 51 87 246 272 343 341 314 190 144 260 209 162 170 240 175 40 267 313 169 241 208 255 246 229 204 241 247 261 255 236 250 267 266 294 311 277 270 272
140 335 291 258 167 45 70 181 193 228 288 360 331 344 12 27 4 16 204 223 199 179 181 234 249 227 268 292 219 352 238 263 274 260 261 251 280 265 266 268 272 276 293 276 271
117 72 261 164 131 99 171 212 257 255 11 2 323 25 32 344 18 44 303 65 13 32 345 325 287 250 326 296 274 213 188 297 279 272 260 241 232 250 265 291 262 263 265 275 286
97 73 270 134 90 88 210 213 245 291 330 346 9 351 1 335 355 11 312 333 32 357 2 304 324 329 330 212 359 335 239 228 247 219 245 270 258 236 259 265 267 265 267 271 285
116 197 290 98 130 157 197 174 255 292 344 302 335 345 282 324 309 316 290 318 329 351 327 293 267 276 255 261 260 260 281 8 234 268 255 258 271 295 304 307 308 308 303 297 289
163 209 330 102 170 199 194 218 248 269 266 287 302 323 18 359 321 278 312 343 350 1 338 311 282 311 315 7 20 99 326 310 189 233 255 302 302 306 311 304 305 303 301 296 290
107 61 314 158 219 196 207 236 233 239 247 256 266 282 293 281 275 271 301 304 312 306 299 294 233 225 255 252 287 291 294 290 269 220 267 258 283 289 299 300 302 292 287 291 283
133 233 193 177 248 229 227 206 218 227 230 217 243 244 244 262 277 272 268 280 285 285 264 162 260 273 283 303 281 282 281 279 263 265 262 285 273 273 275 293 293 302 298 293 295
146 162 200 277 230 173 223 233 245 251 219 237 241 248 260 254 239 270 283 278 265 295 277 234 265 258 284 294 290 285 266 268 271 269 260 260 268 260 269 287 301 290 294 290 289
248 10 105 248 189 164 209 239 247 237 257 249 255 267 266 254 261 265 260 262 259 264 276 241 254 277 277 298 306 279 267 246 256 249 256 258 268 283 279 289 287 301 303 298 291